When you browse on this site, cookies collect data to enhance your experience and personalize the content and advertising you see.
Visit our Privacy Policy to learn more. By continuing to use the site, you agree to this use of cookies and data.
  • In Czech Republic
  • List of Countries
  • For 7 days
  • Water Temperature
  • Satellite Maps
  • Weather Map
  • Weather Widgets
  • user-avatar
    Login

    Hourly Weather Guly

    Today, 16 July, Tuesday

    Time Temperature Precipitation Wind Pressure Humidity
    00:00 +13°C° 0 mm 1 mps 743 mmHg 90%
    01:00 +13°C° 0 mm 1 mps 743 mmHg 91%
    02:00 +12°C° 0 mm 1 mps 743 mmHg 91%
    03:00 +13°C° 0.1 mm 1 mps 743 mmHg 91%
    04:00 +13°C° 0.1 mm 1 mps 743 mmHg 91%
    05:00 +13°C° 0.1 mm 1 mps 743 mmHg 91%
    06:00 +15°C° 0.1 mm 1 mps 743 mmHg 86%
    07:00 +16°C° 0.1 mm 1 mps 743 mmHg 82%
    08:00 +17°C° 0 mm 0 mps 743 mmHg 79%
    09:00 +19°C° 0.6 mm 0 mps 743 mmHg 71%
    10:00 +22°C° 0.6 mm 1 mps 742 mmHg 64%
    11:00 +23°C° 0.6 mm 1 mps 742 mmHg 56%
    12:00 +23°C° 0.3 mm 1 mps 742 mmHg 56%
    13:00 +23°C° 0.3 mm 1 mps 741 mmHg 56%
    14:00 +23°C° 0.3 mm 2 mps 741 mmHg 56%
    15:00 +23°C° 0.8 mm 2 mps 741 mmHg 62%
    16:00 +22°C° 0.8 mm 1 mps 741 mmHg 68%
    17:00 +22°C° 0.8 mm 1 mps 741 mmHg 74%
    18:00 +20°C° 0.2 mm 1 mps 741 mmHg 78%
    19:00 +19°C° 0.2 mm 1 mps 740 mmHg 82%
    20:00 +18°C° 0.2 mm 1 mps 740 mmHg 86%
    21:00 +16°C° 0.4 mm 2 mps 740 mmHg 88%
    22:00 +15°C° 0.4 mm 2 mps 740 mmHg 91%
    23:00 +15°C° 0.4 mm 2 mps 740 mmHg 93%

    Tomorrow, 17 July, Wednesday

    Time Temperature Precipitation Wind Pressure Humidity
    00:00 +14°C° 0.1 mm 2 mps 740 mmHg 93%
    01:00 +14°C° 0.1 mm 1 mps 740 mmHg 92%
    02:00 +14°C° 0.1 mm 1 mps 740 mmHg 91%
    03:00 +14°C° 0.5 mm 1 mps 739 mmHg 93%
    04:00 +14°C° 0.5 mm 1 mps 739 mmHg 94%
    05:00 +14°C° 0.5 mm 1 mps 739 mmHg 96%
    06:00 +15°C° 0.7 mm 1 mps 739 mmHg 94%
    07:00 +15°C° 0.7 mm 1 mps 739 mmHg 91%
    08:00 +16°C° 0.7 mm 1 mps 739 mmHg 89%
    09:00 +16°C° 0.8 mm 2 mps 739 mmHg 87%
    10:00 +17°C° 0.8 mm 3 mps 739 mmHg 84%
    11:00 +17°C° 0.8 mm 4 mps 739 mmHg 82%
    12:00 +18°C° 0.1 mm 4 mps 739 mmHg 77%
    13:00 +19°C° 0.1 mm 4 mps 739 mmHg 72%
    14:00 +19°C° 0.1 mm 4 mps 739 mmHg 67%
    15:00 +19°C° 0.2 mm 3 mps 739 mmHg 70%
    16:00 +19°C° 0.2 mm 3 mps 738 mmHg 72%
    17:00 +19°C° 0.2 mm 3 mps 738 mmHg 74%
    18:00 +18°C° 0.3 mm 2 mps 738 mmHg 79%
    19:00 +16°C° 0.3 mm 2 mps 738 mmHg 83%
    20:00 +15°C° 0.3 mm 2 mps 738 mmHg 88%
    21:00 +14°C° 0.1 mm 2 mps 738 mmHg 90%
    22:00 +14°C° 0.1 mm 2 mps 738 mmHg 92%
    23:00 +13°C° 0.1 mm 2 mps 738 mmHg 93%

    Day after tomorrow, 18 July, Thursday

    Time Temperature Precipitation Wind Pressure Humidity
    00:00 +12°C° 0 mm 2 mps 738 mmHg 94%
    01:00 +12°C° 0 mm 2 mps 738 mmHg 95%
    02:00 +10°C° 0 mm 2 mps 738 mmHg 96%
    03:00 +10°C° 0 mm 2 mps 738 mmHg 97%
    04:00 +10°C° 0 mm 2 mps 738 mmHg 97%
    05:00 +10°C° 0 mm 2 mps 738 mmHg 98%
    06:00 +12°C° 0 mm 3 mps 738 mmHg 95%
    07:00 +13°C° 0 mm 3 mps 739 mmHg 92%
    08:00 +14°C° 0 mm 3 mps 739 mmHg 89%
    09:00 +16°C° 0.1 mm 3 mps 739 mmHg 87%
    10:00 +16°C° 0.1 mm 3 mps 739 mmHg 85%
    11:00 +17°C° 0.1 mm 3 mps 739 mmHg 83%
    12:00 +17°C° 0.5 mm 4 mps 739 mmHg 84%
    13:00 +17°C° 0.5 mm 4 mps 739 mmHg 84%
    14:00 +18°C° 0.5 mm 4 mps 739 mmHg 85%
    15:00 +17°C° 0.1 mm 4 mps 740 mmHg 86%
    16:00 +17°C° 0.1 mm 4 mps 740 mmHg 87%
    17:00 +16°C° 0.1 mm 3 mps 740 mmHg 88%
    18:00 +16°C° 0.4 mm 3 mps 740 mmHg 90%
    19:00 +16°C° 0.4 mm 3 mps 740 mmHg 92%
    20:00 +16°C° 0.4 mm 3 mps 740 mmHg 94%
    21:00 +14°C° 0.1 mm 3 mps 740 mmHg 95%
    22:00 +14°C° 0.1 mm 3 mps 740 mmHg 95%
    23:00 +14°C° 0.1 mm 4 mps 741 mmHg 96%

    19 July, Friday

    Time Temperature Precipitation Wind Pressure Humidity
    00:00 +13°C° 0 mm 3 mps 741 mmHg 97%
    01:00 +13°C° 0 mm 3 mps 741 mmHg 97%
    02:00 +12°C° 0 mm 3 mps 741 mmHg 97%
    03:00 +12°C° 0 mm 3 mps 741 mmHg 97%
    04:00 +12°C° 0 mm 3 mps 741 mmHg 96%
    05:00 +12°C° 0 mm 4 mps 741 mmHg 96%
    06:00 +13°C° 0 mm 4 mps 742 mmHg 93%
    07:00 +14°C° 0 mm 4 mps 742 mmHg 89%
    08:00 +15°C° 0 mm 5 mps 742 mmHg 86%
    09:00 +15°C° 0.1 mm 5 mps 743 mmHg 84%
    10:00 +16°C° 0.1 mm 5 mps 743 mmHg 82%
    11:00 +17°C° 0.1 mm 5 mps 743 mmHg 80%
    12:00 +19°C° 0.2 mm 5 mps 743 mmHg 75%
    13:00 +20°C° 0.2 mm 5 mps 744 mmHg 71%
    14:00 +21°C° 0.2 mm 6 mps 744 mmHg 67%
    15:00 +21°C° 0.1 mm 5 mps 744 mmHg 66%
    16:00 +21°C° 0.1 mm 5 mps 744 mmHg 65%
    17:00 +21°C° 0.1 mm 5 mps 744 mmHg 64%
    18:00 +20°C° 0 mm 4 mps 744 mmHg 70%
    19:00 +18°C° 0 mm 3 mps 744 mmHg 76%
    20:00 +17°C° 0 mm 2 mps 745 mmHg 82%
    21:00 +16°C° 0 mm 2 mps 745 mmHg 85%
    22:00 +15°C° 0 mm 2 mps 745 mmHg 89%
    23:00 +14°C° 0 mm 2 mps 746 mmHg 92%

    20 July, Saturday

    Time Temperature Precipitation Wind Pressure Humidity
    00:00 +14°C° 0 mm 2 mps 746 mmHg 93%
    01:00 +13°C° 0 mm 2 mps 746 mmHg 93%
    02:00 +13°C° 0 mm 2 mps 746 mmHg 94%
    03:00 +13°C° 0 mm 2 mps 746 mmHg 94%
    04:00 +13°C° 0 mm 2 mps 746 mmHg 93%
    05:00 +13°C° 0 mm 2 mps 746 mmHg 93%
    06:00 +15°C° 0 mm 2 mps 747 mmHg 87%
    07:00 +17°C° 0 mm 3 mps 747 mmHg 80%
    08:00 +19°C° 0 mm 3 mps 747 mmHg 74%
    09:00 +20°C° 0 mm 3 mps 747 mmHg 68%
    10:00 +21°C° 0 mm 3 mps 748 mmHg 62%
    11:00 +23°C° 0 mm 4 mps 748 mmHg 57%
    12:00 +23°C° 0 mm 4 mps 748 mmHg 55%
    13:00 +25°C° 0 mm 4 mps 748 mmHg 53%
    14:00 +25°C° 0 mm 4 mps 748 mmHg 51%
    15:00 +25°C° 0 mm 4 mps 748 mmHg 53%
    16:00 +25°C° 0 mm 4 mps 748 mmHg 55%
    17:00 +24°C° 0 mm 3 mps 748 mmHg 57%
    18:00 +21°C° 0 mm 3 mps 748 mmHg 64%
    19:00 +20°C° 0 mm 2 mps 748 mmHg 70%
    20:00 +18°C° 0 mm 2 mps 748 mmHg 77%
    21:00 +17°C° 0 mm 2 mps 748 mmHg 78%
    22:00 +16°C° 0 mm 2 mps 749 mmHg 80%
    23:00 +15°C° 0 mm 2 mps 749 mmHg 81%

    21 July, Sunday

    Time Temperature Precipitation Wind Pressure Humidity
    00:00 +14°C° 0 mm 1 mps 749 mmHg 84%
    01:00 +14°C° 0 mm 1 mps 749 mmHg 86%
    02:00 +13°C° 0 mm 1 mps 749 mmHg 89%
    03:00 +13°C° 0 mm 1 mps 749 mmHg 89%
    04:00 +13°C° 0 mm 1 mps 749 mmHg 89%
    05:00 +13°C° 0 mm 1 mps 749 mmHg 89%
    06:00 +16°C° 0 mm 1 mps 750 mmHg 82%
    07:00 +19°C° 0 mm 1 mps 750 mmHg 75%
    08:00 +21°C° 0 mm 1 mps 750 mmHg 69%
    09:00 +21°C° 0 mm 2 mps 750 mmHg 63%
    10:00 +24°C° 0 mm 2 mps 750 mmHg 58%
    11:00 +25°C° 0 mm 2 mps 750 mmHg 53%
    12:00 +25°C° 0 mm 2 mps 750 mmHg 51%
    13:00 +26°C° 0 mm 2 mps 750 mmHg 50%
    14:00 +26°C° 0 mm 3 mps 750 mmHg 48%
    15:00 +26°C° 0 mm 3 mps 750 mmHg 51%
    16:00 +26°C° 0 mm 3 mps 750 mmHg 54%
    17:00 +26°C° 0 mm 3 mps 750 mmHg 57%
    18:00 +24°C° 0 mm 2 mps 750 mmHg 64%
    19:00 +21°C° 0 mm 2 mps 750 mmHg 70%
    20:00 +19°C° 0 mm 2 mps 750 mmHg 76%
    21:00 +19°C° 0 mm 1 mps 750 mmHg 78%
    22:00 +18°C° 0 mm 1 mps 750 mmHg 81%
    23:00 +16°C° 0 mm 1 mps 750 mmHg 83%
    Show more